Regional Weather Roundup
Issued by NWS Jackson, KY

Home | Current Version | Previous Version | Graphics & Text | Print | Product List | Glossary On
Versions: 1 2 3 4 5 6 7 8 9 10 11 12 13 14 15 16 17 18 19 20 21 22 23 24 25 26 27 28 29 30 31 32 33 34 35 36 37 38 39 40 41 42 43 44 45 46 47 48 49 50
000
ASUS43 KJKL 270410
RWRJKL

EAST KENTUCKY HOURLY WEATHER ROUNDUP
NATIONAL WEATHER SERVICE JACKSON KY
1200 AM EDT FRI MAR 27 2015

NOTE: "FAIR" INDICATES FEW OR NO CLOUDS BELOW 12,000 FEET WITH
NO SIGNIFICANT WEATHER AND/OR OBSTRUCTIONS TO VISIBILITY.

* THESE REPORTS ARE NOT UNDER NWS QUALITY CONTROL AND MAY NOT
  REPORT WEATHER SUCH AS PRECIPITATION AND FOG.

KYZ079-080-083-085-087-088-110-112-115-119-120-270500
...EASTERN KENTUCKY...

CITY           SKY/WX    TMP DP  RH WIND       PRES   REMARKS
JACKSON        LGT RAIN  40  37  89 CALM      29.93S
LONDON         LGT RAIN  41  36  82 N5        29.96R
SOMERSET*      CLOUDY    39  37  93 N6        29.98F WCI  35
MONTICELLO*    CLOUDY    42  41  97 N3        30.00S
MIDDLESBORO*   LGT RAIN  43  40  88 N6        29.93R
HAZARD APT*    LGT RAIN  41  41 100 CALM      29.94R
BLACK MTN*       N/A     32  34 100 N12         N/A  WCI  23
PIKEVILLE APT* LGT RAIN  39  37  93 N6        29.91R WCI  35
BIG SANDY*     RAIN      41  40  95 CALM      29.91F
MOREHEAD APT*  CLOUDY    41  37  87 VRB5      29.97S
$$

KYZ035-036-041-042-044-050-067-078-099-270500
...CENTRAL KENTUCKY...

CITY           SKY/WX    TMP DP  RH WIND       PRES   REMARKS
MT STERLING*   CLOUDY    39  37  93 N7        29.98S WCI  34
FLEMING/MASON* PTCLDY    39  34  81 NW5       29.97S
DANVILLE*      CLOUDY    37  36  93 N7        30.00R WCI  32
RICHMOND*      CLOUDY    39  36  87 NW5       29.98R
LEXINGTON      CLOUDY    39  36  89 NW5       29.99R
FRANKFORT      CLOUDY    39  35  86 VRB3      29.98S
$$

KYZ091>093-OHZ055-061-077-WVZ005-015-034-035-042-270500
...SOUTHERN OHIO/WEST VIRGINIA...

CITY           SKY/WX    TMP DP  RH WIND       PRES   REMARKS
COVINGTON      PTCLDY    36  30  79 W6        29.98R WCI  31
COLUMBUS       CLOUDY    38  32  79 NW13      29.93S WCI  30
DAYTON         CLOUDY    37  28  70 N10       29.99R WCI  30
WILMINGTON     CLOUDY    39  31  72 NW7       29.95S WCI  34
HUNTINGTON     CLOUDY    41  37  86 N8        29.92F
CHARLESTON     LGT RAIN  43  38  82 NW7       29.90F
PINEVILLE*     RAIN      43  42  97 MISG      29.94R
BECKLEY        CLOUDY    38  35  89 N7        29.85S WCI  33
BLUEFIELD      LGT RAIN  43  39  86 N6        29.84S
$$

VAZ002-007-008-TNZ017-027-036-066-071-270500
...SOUTHWEST VIRGINIA/EAST TENNESSEE...

CITY           SKY/WX    TMP DP  RH WIND       PRES   REMARKS
WISE*          LGT SNOW  37  37 100 N8        29.89R WCI  31
JONESVILLE*    LGT RAIN  45  43  93 CALM      29.91R
ABINGDON*      LGT RAIN  45  42  89 NW12G18   29.85R
BRISTOL        LGT RAIN  45  42  89 N8        29.86R
KNOXVILLE      LGT RAIN  46  44  93 N7        29.91R
OAK RIDGE      RAIN      46  44  93 CALM      29.94R FOG
CROSSVILLE     LGT RAIN  39  36  89 N12       29.93R WCI  32
NASHVILLE      CLOUDY    42  37  82 N13G20    30.00F
$$

...KEY TO REMARKS...
VSB - VISIBILITY IN MILES
WCI - WIND CHILL INDEX
HX  - HEAT INDEX

$$



USA.gov is the U.S. government's official web portal to all federal, state and local government web resources and services.